Regional Weather Roundup
Issued by NWS

Home | Current Version | Previous Version | Graphics & Text | Print | Product List | Glossary On
Versions: 1 2 3 4 5 6 7 8 9 10 11 12 13 14 15 16 17 18 19 20 21 22 23 24 25 26 27 28 29 30 31 32 33 34 35 36 37 38 39 40 41 42 43 44 45 46 47 48 49 50
000
ASUS43 KOAX 081610
RWRNE

WEATHER ROUNDUP FOR NEBRASKA
NATIONAL WEATHER SERVICE OMAHA NE
1000 AM CST THU DEC 08 2016

NOTES: SATELLITE DATA IS BEING USED TO AUGMENT CLOUD COVER ABOVE
       12000 FEET.
       "FAIR" INDICATES FEW OR NO CLOUDS BELOW 12,000 FEET WITH NO
       SIGNIFICANT WEATHER AND/OR OBSTRUCTIONS TO VISIBILITY.

  * THESE STATIONS DO NOT REPORT WEATHER SUCH AS RAIN...SNOW OR FOG.

NEZ001>004-019>022-054>056-081700-
NEBRASKA PANHANDLE

CITY           SKY/WX    TMP DP  RH WIND       PRES   REMARKS
SCOTTSBLUFF    SUNNY     -1  -8  72 W8        30.54R WCI -15
ALLIANCE       SUNNY      0  -7  72 W7        30.53R WCI -13
CHADRON        SUNNY      5  -5  63 W10       30.59R WCI -10
KIMBALL        CLOUDY    -3  -7  82 W5        30.46R WCI -13
SIDNEY         SUNNY      0  -8  69 NW8       30.51R WCI -14
$$

NEZ057>060-069>072-079>082-081700-
SOUTHWEST NEBRASKA

CITY           SKY/WX    TMP DP  RH WIND       PRES   REMARKS
NORTH PLATTE   SUNNY      7  -1  70 NW12      30.63R WCI  -8
IMPERIAL       SUNNY      3  -6  66 NW8       30.60R WCI -10
LEXINGTON      SUNNY     12   2  63 NW17G24   30.63S WCI  -5
MCCOOK         SUNNY      3  -5  69 W10       30.66R WCI -12
OGALLALA       SUNNY      8  -1  64 N17       30.57S WCI -10
$$

NEZ005>010-023>029-035>040-094-081700-
NORTH CENTRAL NEBRASKA

CITY           SKY/WX    TMP DP  RH WIND       PRES   REMARKS
VALENTINE      SUNNY      7  -5  57 NW18G24   30.62R WCI -12
AINSWORTH      SUNNY      8  -1  66 NW15      30.61R WCI -10
BROKEN BOW     SUNNY     12   0  58 NW17G25   30.60R WCI  -5
O`NEILL        SUNNY     11   1  65 NW18G26   30.61R WCI  -7
ORD            SUNNY     11  -2  56 NW20      30.63R WCI  -7
THEDFORD       SUNNY      9   0  67 NW13      30.61R WCI  -7
$$

NEZ041-046>049-061>064-073>077-083>087-081700-
SOUTH CENTRAL NEBRASKA

CITY           SKY/WX    TMP DP  RH WIND       PRES   REMARKS
GRAND ISLAND   SUNNY     12   2  64 NW20      30.65R WCI  -6
AURORA         SUNNY     13   2  61 NW20      30.64R WCI  -5
HASTINGS       SUNNY     13   1  59 NW18      30.65R WCI  -4
HEBRON         SUNNY     15   4  63 N14G20    30.67R WCI   0
HOLDREGE       SUNNY     12   2  64 NW15G21   30.63R WCI  -4
KEARNEY *      SUNNY     12   0  57 N14       30.65R WCI  -3
YORK           SUNNY     14   3  62 NW21      30.63R WCI  -4
$$

NEZ011>018-030>034-042>045-081700-
NORTHEAST NEBRASKA

CITY           SKY/WX    TMP DP  RH WIND       PRES   REMARKS
NORFOLK        SUNNY     13   2  61 NW20G31   30.59R WCI  -5
ALBION         SUNNY     12   2  62 NW22G28   30.61R WCI  -7
BLAIR          SUNNY     14   6  70 NW20      30.58R WCI  -3
FREMONT        SUNNY     15   6  67 NW23      30.62R WCI  -3
TEKAMAH        SUNNY     16   6  65 NW20      30.62R WCI  -1
WAYNE          SUNNY     13   4  68 NW23G29   30.59R WCI  -6
$$

NEZ050>053-065>068-078-088>093-081700-
SOUTHEAST NEBRASKA

CITY           SKY/WX    TMP DP  RH WIND       PRES   REMARKS
LINCOLN        SUNNY     15   3  59 NW15      30.66R WCI   0
OMAHA EPPLEY   MOSUNNY   16   5  62 NW18G24   30.62R WCI   0
BEATRICE       SUNNY     16   5  62 N21G26    30.64R WCI  -2
FALLS CITY     SUNNY     17   5  59 NW18      30.64R WCI   1
NEBRASKA CITY  SUNNY     15   1  54 NW16      30.63R WCI   0
PLATTSMOUTH    MOSUNNY   16   3  58 NW17      30.61R WCI   0
$$

NEZ044-045-051>053-067-081700-
OMAHA AREA

CITY           SKY/WX    TMP DP  RH WIND       PRES   REMARKS
OMAHA EPPLEY   MOSUNNY   16   5  62 NW18G24   30.62R WCI   0
BLAIR          SUNNY     14   6  70 NW20      30.58R WCI  -3
FREMONT        SUNNY     15   6  67 NW23      30.62R WCI  -3
MILLARD        SUNNY     16   5  62 NW18G25   30.63R WCI  -1
OFFUTT AFB     SUNNY     16   5  62 NW20G25   30.62R WCI  -1
PLATTSMOUTH    MOSUNNY   16   3  58 NW17      30.61R WCI   0
WAHOO          FAIR      15   5  64 NW20      30.62S WCI  -2
$$




USA.gov is the U.S. government's official web portal to all federal, state and local government web resources and services.